Wind_Speed
28 30 31 32 33 33 34 34 35 36 37 37 38 38 38 37 38 39 40 40 42 43 45 47 49 51 53 55 57 58 60 62 62 63 63 63 62 62 61 60 60 60 60 59
30 32 33 33 34 35 35 36 37 37 38 39 40 40 41 41 41 42 43 44 45 47 49 52 54 56 57 59 60 61 62 62 62 61 61 60 59 59 59 58 58 57 57 57
33 35 36 36 36 37 37 37 37 38 38 39 40 41 42 42 43 44 45 47 49 51 53 55 58 59 60 61 62 61 61 60 58 58 57 57 56 56 56 55 55 54 54 54
36 37 38 38 37 38 38 38 38 38 39 40 40 40 40 42 43 45 47 49 52 54 55 57 58 59 59 59 59 58 57 57 56 55 55 54 54 53 52 52 51 51 51 51
34 36 37 37 37 36 36 37 37 37 38 38 39 40 41 42 44 46 48 50 51 53 54 56 56 56 56 56 55 55 54 53 52 52 51 50 50 49 48 48 47 47 47 48
29 31 32 32 32 33 33 34 34 35 36 37 38 40 41 43 44 46 47 48 49 50 51 52 52 52 52 52 51 50 49 48 48 47 46 45 45 45 45 45 45 45 44 44
23 25 26 26 26 27 28 29 30 32 33 35 36 38 39 40 41 42 43 44 46 47 48 48 48 48 48 47 46 45 44 42 42 41 41 42 42 42 42 42 42 42 42 41
19 20 20 21 22 23 24 25 27 28 29 31 32 33 34 36 37 39 40 41 42 43 43 43 43 42 41 40 39 38 38 38 38 38 39 39 39 39 39 39 39 38 37 36
18 19 19 20 21 22 23 24 24 25 26 27 29 31 32 33 35 36 37 38 38 38 38 37 36 35 34 34 33 34 34 35 35 36 37 37 37 37 37 36 35 33 32 31
17 18 19 19 20 20 21 23 24 25 26 27 29 30 30 31 32 32 33 33 33 32 31 30 29 28 29 29 30 31 33 34 35 36 36 36 35 34 33 31 29 28 26 25
15 15 16 17 18 20 21 22 23 24 25 26 27 27 27 27 27 27 26 26 25 24 24 23 24 25 26 28 30 32 33 34 34 34 33 32 30 29 27 25 23 22 21 20
14 15 16 16 18 19 20 21 21 22 22 23 23 22 22 21 20 20 19 19 18 18 19 21 22 25 27 29 31 32 33 32 31 30 28 26 25 23 21 19 18 18 16 15
13 13 14 15 16 17 18 18 18 18 18 17 16 15 14 13 13 13 13 13 14 16 18 21 23 26 28 30 31 31 29 28 26 24 23 21 19 17 16 15 14 13 12 11
12 12 13 14 14 14 15 14 14 13 12 11 9 8 7 7 7 8 9 11 14 16 19 22 25 27 29 29 28 27 26 24 22 20 17 15 14 13 11 10 10 9 9 9
11 11 11 11 11 11 10 9 8 7 6 5 3 3 3 3 5 7 9 12 15 18 21 24 26 27 28 27 26 25 23 21 18 15 13 11 10 9 8 8 8 8 8 8
9 9 9 9 8 7 6 5 3 2 1 0 1 2 3 4 6 8 11 14 17 20 23 25 26 27 27 26 24 22 20 18 16 13 10 9 8 7 7 8 8 9 9 11
7 7 6 6 6 5 3 2 0 1 2 3 4 5 5 7 8 11 13 16 19 22 24 25 26 26 26 25 23 21 19 17 14 12 10 9 9 8 9 9 10 11 12 13
7 6 5 4 4 3 1 1 3 4 5 6 6 7 7 9 10 13 15 18 20 23 24 25 26 25 25 24 22 20 18 16 14 13 12 11 11 11 11 12 13 14 15 15
6 5 4 3 2 0 2 4 5 6 7 8 8 8 9 10 12 14 17 19 21 23 25 26 26 25 25 24 22 20 18 17 16 15 14 13 13 13 14 14 15 15 15 15
6 5 3 2 1 2 4 5 6 8 8 8 9 9 10 11 13 16 18 20 22 24 26 26 27 26 26 25 23 22 21 19 18 17 16 16 15 15 15 15 15 15 15 14
6 4 3 3 3 4 5 6 8 8 9 9 9 9 10 12 14 16 18 20 23 24 26 27 28 28 27 27 26 24 23 22 21 20 19 18 17 16 16 15 14 14 14 13
6 5 4 4 5 5 6 7 8 9 9 9 9 10 10 12 14 16 18 20 23 24 26 27 28 29 29 29 28 26 25 24 22 22 21 20 19 18 16 15 14 13 13 13
7 6 6 6 6 7 8 8 9 9 9 9 9 9 10 11 13 15 17 20 22 23 25 26 27 28 29 30 29 28 26 25 23 22 21 20 19 18 17 16 14 13 13 13
8 7 7 7 7 8 9 9 9 9 10 10 9 9 10 11 12 14 16 19 21 22 24 26 27 28 29 30 29 29 28 26 25 23 22 21 19 18 18 17 16 15 14 13
10 9 8 8 9 9 10 11 11 11 11 10 9 9 9 10 11 12 15 17 19 21 23 25 26 27 29 30 30 29 29 28 27 26 25 23 21 20 19 18 18 17 16 16
11 10 9 9 10 10 11 12 12 12 12 11 10 9 8 9 9 11 13 15 17 19 21 22 24 26 27 29 30 30 30 29 29 29 28 27 26 24 23 21 20 19 18 17
12 11 11 10 11 11 12 13 14 13 13 12 11 9 8 8 8 9 12 14 15 17 19 21 22 24 25 27 29 30 30 31 30 30 30 30 29 29 28 27 25 23 22 20
Wind_Direction
232 233 237 241 244 246 247 248 249 249 251 253 256 259 261 264 267 270 272 274 276 279 281 284 287 289 290 291 292 293 294 295 296 297 297 297 297 297 297 296 296 295 295 295
244 241 241 245 248 251 253 255 255 255 255 256 259 261 263 265 268 271 273 276 278 280 283 285 287 290 292 293 294 295 295 296 297 297 296 296 296 295 295 295 295 295 294 294
253 250 250 250 251 254 257 259 261 263 263 264 264 266 268 271 273 276 278 281 283 285 287 288 290 291 293 294 295 295 296 296 296 295 295 295 294 294 294 294 294 294 293 293
257 258 257 259 260 262 263 265 266 268 269 271 272 273 274 275 277 278 280 282 284 286 288 290 291 293 293 294 295 295 296 296 295 295 294 294 294 294 294 294 293 293 293 293
262 262 263 263 265 266 267 269 269 270 271 272 273 275 275 277 279 280 283 285 287 289 290 291 292 293 294 294 295 295 295 294 294 294 293 293 293 293 293 293 293 293 294 294
269 268 268 267 267 268 269 269 270 270 271 272 273 273 275 277 279 281 284 286 288 289 290 291 292 293 293 294 294 294 294 294 294 293 293 293 293 294 294 294 294 294 295 295
272 272 271 270 269 268 267 267 266 267 268 270 271 274 276 279 281 283 285 286 287 289 290 291 292 293 293 293 293 294 294 294 294 294 294 294 295 295 295 295 295 295 295 296
271 269 269 269 269 269 268 268 268 268 270 271 273 276 278 280 282 283 285 287 288 290 291 292 293 293 294 294 294 295 296 296 296 296 296 296 296 296 296 296 297 297 297 298
270 268 269 269 271 272 271 271 272 273 275 276 278 279 281 282 283 285 286 288 290 292 293 294 295 295 296 297 298 299 299 299 299 299 299 298 298 298 298 298 299 299 300 301
272 269 270 269 270 273 273 274 276 278 280 280 281 282 282 284 285 287 289 291 293 294 296 297 298 300 301 302 303 303 303 302 302 302 302 301 300 300 300 300 301 301 303 304
273 271 270 273 274 276 276 277 278 279 281 282 282 283 283 285 288 290 292 294 297 299 302 304 306 307 308 308 307 307 307 307 306 306 305 304 304 304 304 303 303 304 306 308
273 272 274 275 277 279 280 280 282 283 283 283 283 283 285 287 290 293 297 300 304 308 310 312 313 314 314 314 314 313 313 312 311 310 309 309 309 309 309 309 310 311 313 316
277 277 280 282 283 284 284 284 284 284 285 284 285 286 288 291 296 302 307 312 317 319 321 322 322 322 321 320 320 319 318 317 316 315 314 313 314 315 316 317 320 323 328 333
280 283 286 288 289 290 291 289 286 286 285 285 288 291 296 303 312 320 327 331 332 332 332 331 330 329 328 328 327 327 326 325 323 323 322 322 323 326 330 333 339 345 352 2
284 287 290 292 294 297 297 294 292 288 281 283 293 308 326 340 349 352 351 348 345 343 341 340 339 338 337 337 336 335 335 335 334 335 336 337 341 348 355 360 6 13 24 41
284 288 293 298 302 304 307 313 306 284 249 269 60 58 46 35 23 14 5 359 355 353 351 350 349 348 348 348 347 347 347 348 349 352 357 5 14 21 24 30 38 47 58 69
281 288 297 311 319 318 314 335 47 130 120 107 97 84 67 48 34 22 14 8 5 3 2 0 359 359 359 358 359 0 3 6 11 18 27 35 40 44 50 58 63 68 75 81
274 285 298 318 329 330 351 108 121 123 117 110 102 88 69 52 38 28 22 18 15 13 11 9 9 8 8 8 11 14 18 24 32 40 47 52 58 64 67 71 74 79 82 84
268 276 285 300 312 85 117 124 128 125 119 113 102 87 69 54 42 34 29 26 23 21 20 19 18 18 19 21 24 28 32 37 44 50 57 63 67 69 73 77 80 82 83 82
258 262 258 241 192 148 135 135 136 130 123 115 103 87 71 57 47 41 37 34 31 30 28 28 28 29 30 32 34 38 42 47 52 58 63 66 69 72 76 79 80 81 80 77
244 242 224 195 172 156 149 146 142 134 127 118 105 89 74 62 53 48 44 41 39 37 36 35 36 37 38 40 42 45 49 54 58 62 64 67 70 72 75 77 78 78 76 73
227 220 205 192 177 166 158 154 148 140 133 123 110 94 79 68 60 54 51 48 45 43 41 40 41 42 42 44 46 49 53 57 60 62 64 66 67 69 70 72 74 75 74 72
212 204 197 190 181 172 164 160 154 148 141 131 117 101 86 74 66 61 57 52 49 47 45 44 44 44 45 46 48 51 53 56 58 60 61 62 63 64 65 67 69 72 72 73
205 202 199 191 181 175 170 165 160 155 149 140 126 108 92 80 72 67 62 57 53 51 49 47 46 46 47 48 50 52 54 55 56 57 58 59 60 61 62 64 66 68 71 73
205 203 199 194 186 179 174 170 166 162 157 149 136 119 103 88 77 71 66 61 57 55 52 50 49 49 50 51 52 54 55 55 56 56 57 58 59 61 62 64 65 68 71 74
205 203 199 194 189 183 179 175 171 168 165 159 148 131 115 101 86 77 71 65 61 58 56 54 52 52 53 53 54 55 56 56 56 57 58 59 60 62 63 64 65 67 71 74
202 200 197 194 191 187 184 180 177 175 172 168 160 146 130 115 99 87 79 72 67 63 61 60 58 56 56 56 56 57 58 58 59 59 59 60 61 63 64 65 66 68 71 74
Height
5742 5745 5747 5749 5751 5754 5756 5757 5759 5760 5761 5762 5763 5763 5763 5763 5763 5762 5762 5761 5760 5759 5758 5756 5754 5751 5749 5746 5742 5738 5734 5729 5724 5719 5714 5709 5704 5699 5693 5688 5683 5678 5673 5667
5736 5738 5740 5742 5745 5747 5748 5749 5751 5752 5754 5754 5754 5754 5754 5754 5753 5753 5752 5751 5750 5748 5746 5744 5742 5739 5735 5732 5728 5724 5720 5715 5710 5705 5700 5695 5690 5684 5679 5674 5669 5664 5659 5654
5730 5731 5732 5735 5737 5739 5740 5741 5742 5744 5745 5744 5745 5745 5744 5744 5743 5742 5741 5740 5739 5737 5734 5732 5729 5725 5721 5718 5714 5709 5705 5700 5696 5691 5685 5680 5675 5670 5665 5660 5655 5650 5645 5640
5722 5724 5725 5729 5729 5730 5731 5732 5733 5734 5735 5735 5735 5735 5734 5733 5733 5731 5730 5728 5726 5724 5721 5718 5715 5711 5707 5703 5699 5694 5690 5685 5680 5675 5671 5666 5661 5656 5651 5646 5642 5637 5633 5628
5714 5714 5716 5719 5720 5721 5723 5724 5724 5725 5725 5725 5725 5725 5724 5723 5722 5720 5719 5717 5714 5711 5708 5705 5701 5697 5693 5689 5684 5680 5675 5671 5666 5661 5656 5652 5647 5642 5638 5634 5629 5625 5621 5616
5705 5706 5708 5711 5711 5712 5714 5715 5716 5716 5716 5716 5716 5716 5715 5713 5711 5710 5707 5705 5702 5699 5696 5692 5689 5684 5680 5675 5671 5666 5662 5657 5652 5648 5643 5639 5634 5630 5626 5622 5617 5613 5609 5605
5699 5699 5700 5702 5702 5704 5707 5708 5707 5707 5707 5707 5707 5706 5705 5703 5701 5699 5697 5695 5692 5688 5685 5681 5677 5672 5667 5663 5658 5653 5649 5644 5640 5636 5631 5627 5623 5618 5614 5610 5606 5602 5598 5594
5693 5694 5697 5695 5696 5698 5698 5698 5698 5698 5698 5698 5698 5697 5696 5694 5692 5690 5687 5685 5681 5678 5674 5670 5665 5661 5656 5652 5647 5643 5638 5634 5629 5625 5620 5616 5612 5607 5603 5599 5595 5591 5587 5583
5689 5691 5690 5690 5690 5691 5691 5691 5691 5691 5691 5690 5690 5688 5687 5685 5683 5681 5678 5675 5672 5668 5664 5660 5655 5651 5647 5642 5638 5633 5629 5624 5619 5615 5610 5605 5601 5597 5593 5589 5585 5581 5578 5574
5684 5684 5684 5685 5685 5686 5685 5685 5685 5684 5684 5683 5681 5680 5678 5677 5675 5672 5669 5666 5663 5659 5655 5651 5647 5643 5638 5634 5629 5625 5620 5615 5610 5605 5600 5595 5591 5587 5583 5580 5576 5573 5570 5567
5679 5680 5680 5680 5680 5680 5680 5679 5678 5677 5676 5675 5673 5672 5670 5669 5667 5664 5662 5659 5655 5652 5648 5644 5640 5636 5631 5627 5622 5616 5611 5605 5600 5595 5590 5586 5582 5579 5575 5572 5569 5567 5564 5562
5675 5675 5675 5675 5675 5674 5673 5672 5671 5670 5669 5667 5666 5665 5664 5662 5660 5658 5656 5653 5650 5647 5643 5639 5635 5630 5625 5620 5614 5608 5602 5597 5592 5587 5583 5579 5575 5572 5569 5567 5564 5562 5559 5557
5671 5671 5671 5670 5669 5668 5667 5666 5665 5664 5663 5662 5661 5659 5658 5657 5656 5654 5652 5650 5647 5644 5640 5635 5630 5625 5619 5613 5607 5601 5595 5589 5585 5580 5576 5573 5570 5567 5565 5563 5560 5558 5556 5554
5667 5667 5666 5666 5665 5664 5662 5661 5660 5659 5658 5658 5657 5656 5656 5655 5653 5652 5650 5648 5645 5641 5636 5631 5626 5620 5613 5607 5600 5594 5589 5583 5579 5575 5572 5569 5566 5564 5562 5560 5559 5557 5555 5553
5664 5664 5663 5662 5661 5660 5659 5658 5657 5656 5656 5655 5655 5655 5654 5654 5652 5651 5649 5646 5642 5638 5633 5628 5622 5615 5608 5602 5595 5589 5584 5579 5575 5571 5569 5566 5564 5563 5561 5560 5558 5557 5555 5554
5661 5661 5660 5659 5658 5657 5656 5655 5655 5654 5654 5655 5655 5654 5654 5653 5652 5650 5648 5645 5641 5636 5631 5625 5618 5611 5604 5598 5591 5586 5581 5576 5572 5569 5567 5565 5564 5563 5562 5560 5559 5558 5557 5556
5659 5659 5658 5657 5656 5655 5655 5654 5654 5654 5655 5655 5655 5655 5655 5654 5653 5651 5648 5644 5640 5635 5629 5623 5616 5610 5603 5596 5590 5585 5580 5576 5572 5569 5567 5566 5565 5564 5563 5562 5561 5561 5560 5560
5658 5657 5657 5656 5655 5655 5654 5654 5655 5655 5655 5656 5656 5656 5656 5655 5653 5651 5648 5644 5640 5635 5629 5623 5616 5610 5603 5597 5591 5585 5581 5577 5574 5572 5570 5569 5568 5567 5566 5565 5565 5564 5564 5564
5656 5656 5656 5655 5655 5655 5655 5655 5656 5656 5657 5657 5658 5658 5657 5656 5655 5652 5649 5645 5641 5636 5630 5624 5618 5611 5605 5599 5593 5588 5584 5581 5578 5575 5574 5572 5572 5571 5570 5569 5569 5569 5569 5569
5655 5655 5655 5655 5655 5655 5656 5656 5657 5658 5658 5659 5659 5659 5659 5658 5656 5654 5651 5647 5643 5638 5633 5627 5621 5615 5609 5603 5598 5593 5589 5585 5582 5580 5579 5577 5576 5575 5574 5574 5574 5574 5573 5573
5654 5654 5654 5655 5655 5656 5656 5657 5658 5659 5660 5661 5661 5661 5661 5660 5658 5656 5653 5650 5646 5641 5637 5631 5626 5620 5614 5609 5603 5599 5595 5591 5589 5586 5584 5583 5581 5580 5579 5579 5578 5578 5578 5577
5653 5653 5654 5655 5655 5656 5657 5658 5659 5660 5661 5662 5663 5663 5663 5662 5661 5659 5656 5653 5650 5646 5641 5636 5631 5626 5620 5615 5610 5605 5601 5598 5595 5593 5590 5589 5587 5585 5584 5583 5583 5582 5582 5581
5652 5653 5654 5654 5655 5657 5658 5659 5660 5662 5663 5664 5665 5665 5665 5664 5663 5662 5660 5657 5653 5650 5646 5642 5637 5632 5627 5622 5617 5612 5608 5605 5602 5599 5597 5594 5592 5591 5589 5588 5586 5586 5585 5585
5651 5652 5653 5654 5655 5657 5658 5660 5661 5663 5664 5666 5666 5667 5667 5667 5666 5665 5663 5660 5658 5654 5651 5647 5643 5638 5634 5629 5624 5619 5615 5612 5609 5605 5603 5600 5598 5595 5594 5592 5590 5589 5589 5588
5650 5651 5653 5654 5655 5657 5658 5660 5662 5664 5665 5667 5668 5669 5669 5669 5669 5668 5666 5664 5662 5659 5656 5653 5649 5645 5641 5636 5631 5627 5623 5619 5616 5612 5609 5606 5603 5600 5598 5597 5595 5594 5593 5592
5649 5650 5652 5653 5655 5657 5658 5660 5662 5664 5666 5668 5669 5670 5671 5671 5671 5670 5669 5667 5666 5663 5661 5658 5655 5652 5648 5643 5639 5635 5631 5627 5623 5620 5616 5613 5609 5607 5604 5602 5600 5599 5598 5597
5647 5649 5651 5653 5654 5656 5658 5660 5662 5664 5666 5668 5670 5671 5672 5673 5673 5673 5672 5671 5669 5668 5666 5663 5661 5658 5654 5651 5647 5643 5639 5635 5632 5628 5625 5621 5618 5615 5612 5610 5607 5605 5603 5602